ARG1496 SAEZ-SASA

Flight info

Callsign ARG1496
Flight time 1h 52m
Altitude 36000
Route BIVAM3A BIVAM UW8 ERE UT672 DADMI UT677 ILPAR ILPAR2M
Aircraft B737/M-SDE2E3FGHIRWXY/LB1

Departure

Time 2026-05-05 20:23
Airport Ezeiza International Airport - Ministro Pistarini (SAEZ)

Arrival

Time 2026-05-05 22:15
Airport Martín Miguel de Güemes International Airport (SASA)
Time Latitude Longitude Altitude Speed Heading
2026-05-05 19:13 -34.81655 -58.54257 74 ft 0 kts 13°
2026-05-05 20:13 -34.81660 -58.54258 74 ft 3 kts 12°
2026-05-05 20:13 -34.81686 -58.54264 74 ft 4 kts
2026-05-05 20:13 -34.81713 -58.54267 74 ft 4 kts
2026-05-05 20:14 -34.81740 -58.54265 74 ft 4 kts 351°
2026-05-05 20:14 -34.81766 -58.54256 65 ft 4 kts 327°
2026-05-05 20:14 -34.81779 -58.54238 66 ft 1 kts 277°
2026-05-05 20:18 -34.81776 -58.54263 68 ft 6 kts 278°
2026-05-05 20:19 -34.81769 -58.54322 74 ft 7 kts 278°
2026-05-05 20:19 -34.81761 -58.54383 74 ft 8 kts 278°
2026-05-05 20:19 -34.81753 -58.54466 71 ft 14 kts 274°
2026-05-05 20:19 -34.81761 -58.54587 69 ft 15 kts 255°
2026-05-05 20:20 -34.81780 -58.54713 74 ft 16 kts 266°
2026-05-05 20:20 -34.81762 -58.54849 74 ft 17 kts 283°
2026-05-05 20:20 -34.81738 -58.54984 74 ft 16 kts 282°
2026-05-05 20:20 -34.81714 -58.55114 74 ft 15 kts 282°
2026-05-05 20:21 -34.81694 -58.55239 71 ft 15 kts 272°
2026-05-05 20:21 -34.81744 -58.55336 70 ft 14 kts 204°
2026-05-05 20:21 -34.81831 -58.55322 71 ft 13 kts 150°
2026-05-05 20:21 -34.81908 -58.55276 70 ft 12 kts 144°
2026-05-05 20:22 -34.81933 -58.55192 75 ft 4 kts 102°
2026-05-05 20:22 -34.81933 -58.55191 77 ft 0 kts 103°
2026-05-05 20:22 -34.81951 -58.55089 73 ft 49 kts 102°
2026-05-05 20:23 -34.82094 -58.54292 82 ft 139 kts 102°
2026-05-05 20:23 -34.82356 -58.52893 379 ft 191 kts 103°
2026-05-05 20:23 -34.82690 -58.51269 1437 ft 196 kts 105°
2026-05-05 20:23 -34.83407 -58.49909 2797 ft 195 kts 139°
2026-05-05 20:24 -34.84673 -58.49115 3456 ft 215 kts 154°
2026-05-05 20:24 -34.85933 -58.48173 4031 ft 222 kts 132°
2026-05-05 20:24 -34.86788 -58.46505 4258 ft 243 kts 113°
2026-05-05 20:24 -34.87609 -58.44640 4720 ft 258 kts 128°
2026-05-05 20:25 -34.89008 -58.43247 5280 ft 265 kts 159°
2026-05-05 20:25 -34.90784 -58.43020 6062 ft 255 kts 194°
2026-05-05 20:25 -34.92513 -58.43494 6737 ft 256 kts 202°
2026-05-05 20:25 -34.93987 -58.44635 7343 ft 251 kts 236°
2026-05-05 20:26 -34.94641 -58.46617 7821 ft 260 kts 270°
2026-05-05 20:26 -34.94189 -58.48742 8559 ft 264 kts 300°
2026-05-05 20:26 -34.93052 -58.50514 9395 ft 269 kts 314°
2026-05-05 20:26 -34.91517 -58.51859 10174 ft 277 kts 329°
2026-05-05 20:27 -34.89688 -58.52838 10527 ft 300 kts 335°
2026-05-05 20:27 -34.87645 -58.53759 10718 ft 325 kts 336°
2026-05-05 20:27 -34.85446 -58.54708 11006 ft 343 kts 337°
2026-05-05 20:27 -34.83174 -58.55688 11589 ft 349 kts 336°
2026-05-05 20:28 -34.80881 -58.56687 12348 ft 351 kts 336°
2026-05-05 20:28 -34.78574 -58.57709 13054 ft 354 kts 335°
2026-05-05 20:28 -34.76256 -58.58750 13733 ft 357 kts 335°
2026-05-05 20:28 -34.73913 -58.59809 14418 ft 360 kts 335°
2026-05-05 20:29 -34.71556 -58.60879 15066 ft 364 kts 335°
2026-05-05 20:29 -34.69204 -58.61949 15723 ft 367 kts 335°
2026-05-05 20:29 -34.66803 -58.63044 16390 ft 370 kts 335°
2026-05-05 20:29 -34.64386 -58.64146 16998 ft 373 kts 335°
2026-05-05 20:30 -34.61940 -58.65261 17603 ft 377 kts 335°
2026-05-05 20:30 -34.59466 -58.66389 18168 ft 381 kts 335°
2026-05-05 20:30 -34.56977 -58.67522 18756 ft 384 kts 335°
2026-05-05 20:30 -34.54465 -58.68664 19318 ft 387 kts 335°
2026-05-05 20:31 -34.51934 -58.69814 19879 ft 390 kts 334°
2026-05-05 20:31 -34.49381 -58.70972 20410 ft 393 kts 334°
2026-05-05 20:31 -34.46812 -58.72138 20959 ft 395 kts 334°
2026-05-05 20:31 -34.44221 -58.73314 21463 ft 398 kts 334°
2026-05-05 20:32 -34.41617 -58.74496 21936 ft 401 kts 334°
2026-05-05 20:32 -34.38988 -58.75688 22373 ft 405 kts 334°
2026-05-05 20:32 -34.36341 -58.76886 22835 ft 407 kts 334°
2026-05-05 20:32 -34.33714 -58.78075 23310 ft 409 kts 334°
2026-05-05 20:33 -34.31046 -58.79281 23726 ft 412 kts 333°
2026-05-05 20:33 -34.28345 -58.80503 24098 ft 415 kts 333°
2026-05-05 20:33 -34.25634 -58.81726 24504 ft 417 kts 333°
2026-05-05 20:33 -34.22910 -58.82955 24898 ft 419 kts 333°
2026-05-05 20:34 -34.20173 -58.84189 25247 ft 422 kts 333°
2026-05-05 20:34 -34.17413 -58.85433 25623 ft 424 kts 333°
2026-05-05 20:34 -34.14638 -58.86683 25984 ft 426 kts 333°
2026-05-05 20:34 -34.11849 -58.87938 26317 ft 429 kts 333°
2026-05-05 20:35 -34.09048 -58.89198 26666 ft 430 kts 333°
2026-05-05 20:35 -34.06233 -58.90462 26998 ft 433 kts 333°
2026-05-05 20:35 -34.03440 -58.91717 27300 ft 435 kts 333°
2026-05-05 20:35 -34.00561 -58.93009 27612 ft 437 kts 333°
2026-05-05 20:36 -33.97749 -58.94293 27926 ft 437 kts 331°
2026-05-05 20:36 -33.95060 -58.95922 28234 ft 431 kts 322°
2026-05-05 20:36 -33.92512 -58.97834 28526 ft 432 kts 322°
2026-05-05 20:36 -33.89956 -58.99743 28785 ft 434 kts 322°
2026-05-05 20:37 -33.87376 -59.01653 29062 ft 435 kts 322°
2026-05-05 20:37 -33.85632 -59.02936 29287 ft 435 kts 322°
2026-05-05 20:37 -33.82208 -59.05440 29823 ft 433 kts 322°
2026-05-05 20:37 -33.79640 -59.07310 30301 ft 430 kts 322°
2026-05-05 20:38 -33.77085 -59.09168 30772 ft 427 kts 322°
2026-05-05 20:38 -33.74554 -59.11009 31201 ft 425 kts 322°
2026-05-05 20:38 -33.72024 -59.12849 31569 ft 424 kts 322°
2026-05-05 20:38 -33.69501 -59.14683 31964 ft 423 kts 322°
2026-05-05 20:39 -33.66987 -59.16507 32387 ft 421 kts 322°
2026-05-05 20:39 -33.64493 -59.18316 32838 ft 417 kts 321°
2026-05-05 20:39 -33.62013 -59.20115 33276 ft 415 kts 321°
2026-05-05 20:39 -33.59582 -59.21877 33655 ft 413 kts 321°
2026-05-05 20:40 -33.57126 -59.23657 33994 ft 411 kts 321°
2026-05-05 20:40 -33.54678 -59.25431 34311 ft 411 kts 321°
2026-05-05 20:40 -33.52202 -59.27224 34585 ft 411 kts 321°
2026-05-05 20:40 -33.49785 -59.28974 34796 ft 412 kts 321°
2026-05-05 20:41 -33.47328 -59.30751 35073 ft 412 kts 321°
2026-05-05 20:41 -33.44873 -59.32524 35287 ft 413 kts 321°
2026-05-05 20:41 -33.42410 -59.34304 35571 ft 412 kts 321°
2026-05-05 20:41 -33.39955 -59.36074 35852 ft 411 kts 321°
2026-05-05 20:42 -33.37497 -59.37846 35873 ft 416 kts 321°
2026-05-05 20:42 -33.33371 -59.40814 35889 ft 415 kts 321°
2026-05-05 20:43 -33.27631 -59.44936 35892 ft 412 kts 321°
2026-05-05 20:43 -33.22734 -59.48452 35900 ft 409 kts 321°
2026-05-05 20:44 -33.18648 -59.51382 35896 ft 408 kts 321°
2026-05-05 20:44 -33.13814 -59.54845 35899 ft 407 kts 321°
2026-05-05 20:45 -33.06526 -59.60059 35904 ft 408 kts 321°
2026-05-05 20:45 -33.01632 -59.63554 35901 ft 410 kts 321°
2026-05-05 20:46 -32.96727 -59.67053 35899 ft 412 kts 321°
2026-05-05 20:46 -32.91783 -59.70573 35893 ft 415 kts 321°
2026-05-05 20:47 -32.86815 -59.74105 35889 ft 416 kts 321°
2026-05-05 20:47 -32.81841 -59.77637 35890 ft 417 kts 321°
2026-05-05 20:48 -32.76851 -59.81174 35884 ft 417 kts 321°
2026-05-05 20:48 -32.71871 -59.84701 35898 ft 416 kts 321°
2026-05-05 20:49 -32.66901 -59.88217 35896 ft 416 kts 321°
2026-05-05 20:49 -32.61928 -59.91732 35901 ft 415 kts 321°
2026-05-05 20:50 -32.56999 -59.95209 35896 ft 415 kts 321°
2026-05-05 20:50 -32.52046 -59.98702 35900 ft 414 kts 321°
2026-05-05 20:51 -32.47090 -60.02194 35909 ft 414 kts 321°
2026-05-05 20:51 -32.42127 -60.05688 35893 ft 414 kts 321°
2026-05-05 20:52 -32.37176 -60.09166 35896 ft 414 kts 321°
2026-05-05 20:52 -32.32223 -60.12644 35903 ft 414 kts 321°
2026-05-05 20:53 -32.27269 -60.16116 35905 ft 414 kts 321°
2026-05-05 20:53 -32.22349 -60.19561 35910 ft 414 kts 321°
2026-05-05 20:54 -32.17383 -60.23035 35907 ft 414 kts 321°
2026-05-05 20:54 -32.12427 -60.26497 35909 ft 414 kts 321°
2026-05-05 20:55 -32.07464 -60.29958 35908 ft 414 kts 321°
2026-05-05 20:55 -32.02499 -60.33416 35905 ft 415 kts 321°
2026-05-05 20:56 -31.97565 -60.36850 35909 ft 414 kts 321°
2026-05-05 20:56 -31.92599 -60.40301 35908 ft 414 kts 321°
2026-05-05 20:57 -31.87636 -60.43746 35905 ft 414 kts 321°
2026-05-05 20:57 -31.82670 -60.47189 35915 ft 413 kts 321°
2026-05-05 20:58 -31.77764 -60.50691 35909 ft 411 kts 319°
2026-05-05 20:58 -31.72979 -60.54374 35922 ft 410 kts 318°
2026-05-05 20:59 -31.68245 -60.58034 35914 ft 410 kts 318°
2026-05-05 20:59 -31.63468 -60.61692 35917 ft 410 kts 318°
2026-05-05 21:00 -31.58684 -60.65331 35921 ft 410 kts 318°
2026-05-05 21:00 -31.53897 -60.68966 35918 ft 409 kts 318°
2026-05-05 21:01 -31.49112 -60.72595 35913 ft 409 kts 318°
2026-05-05 21:01 -31.44329 -60.76217 35920 ft 409 kts 318°
2026-05-05 21:02 -31.39546 -60.79836 35917 ft 410 kts 318°
2026-05-05 21:02 -31.34758 -60.83454 35914 ft 409 kts 318°
2026-05-05 21:03 -31.29974 -60.87063 35920 ft 409 kts 318°
2026-05-05 21:03 -31.25186 -60.90672 35915 ft 409 kts 318°
2026-05-05 21:04 -31.20399 -60.94277 35913 ft 409 kts 318°
2026-05-05 21:04 -31.15601 -60.97883 35918 ft 409 kts 318°
2026-05-05 21:05 -31.10813 -61.01479 35911 ft 409 kts 318°
2026-05-05 21:05 -31.06063 -61.05041 35917 ft 408 kts 318°
2026-05-05 21:06 -31.01283 -61.08619 35908 ft 409 kts 318°
2026-05-05 21:06 -30.96488 -61.12196 35906 ft 409 kts 318°
2026-05-05 21:07 -30.91702 -61.15762 35907 ft 409 kts 317°
2026-05-05 21:07 -30.86911 -61.19328 35901 ft 409 kts 317°
2026-05-05 21:08 -30.82119 -61.22892 35911 ft 409 kts 317°
2026-05-05 21:08 -30.77316 -61.26460 35907 ft 409 kts 317°
2026-05-05 21:09 -30.72507 -61.30027 35907 ft 410 kts 317°
2026-05-05 21:09 -30.67697 -61.33591 35909 ft 410 kts 317°
2026-05-05 21:10 -30.62886 -61.37151 35908 ft 410 kts 317°
2026-05-05 21:10 -30.58109 -61.40682 35908 ft 410 kts 317°
2026-05-05 21:11 -30.53302 -61.44231 35905 ft 409 kts 317°
2026-05-05 21:11 -30.48500 -61.47773 35908 ft 408 kts 317°
2026-05-05 21:12 -30.43700 -61.51310 35908 ft 408 kts 317°
2026-05-05 21:12 -30.38903 -61.54837 35903 ft 408 kts 317°
2026-05-05 21:13 -30.34113 -61.58361 35907 ft 407 kts 317°
2026-05-05 21:13 -30.29334 -61.61868 35908 ft 407 kts 317°
2026-05-05 21:14 -30.24571 -61.65361 35902 ft 407 kts 317°
2026-05-05 21:14 -30.19786 -61.68865 35900 ft 407 kts 317°
2026-05-05 21:15 -30.14994 -61.72371 35898 ft 407 kts 317°
2026-05-05 21:15 -30.10211 -61.75864 35896 ft 407 kts 317°
2026-05-05 21:16 -30.05429 -61.79353 35897 ft 407 kts 317°
2026-05-05 21:16 -30.00645 -61.82841 35897 ft 406 kts 317°
2026-05-05 21:17 -29.95871 -61.86316 35899 ft 405 kts 317°
2026-05-05 21:17 -29.91137 -61.89762 35899 ft 405 kts 317°
2026-05-05 21:18 -29.86337 -61.93193 35893 ft 409 kts 320°
2026-05-05 21:18 -29.81300 -61.96315 35905 ft 411 kts 321°
2026-05-05 21:19 -29.76240 -61.99396 35896 ft 412 kts 321°
2026-05-05 21:19 -29.71182 -62.02491 35899 ft 412 kts 321°
2026-05-05 21:20 -29.66133 -62.05592 35894 ft 411 kts 321°
2026-05-05 21:20 -29.61079 -62.08698 35886 ft 412 kts 321°
2026-05-05 21:21 -29.56025 -62.11802 35890 ft 412 kts 321°
2026-05-05 21:21 -29.50966 -62.14905 35892 ft 412 kts 321°
2026-05-05 21:22 -29.45941 -62.17983 35887 ft 412 kts 321°
2026-05-05 21:22 -29.40853 -62.21098 35887 ft 412 kts 321°
2026-05-05 21:23 -29.35788 -62.24193 35890 ft 412 kts 321°
2026-05-05 21:23 -29.30787 -62.27246 35886 ft 413 kts 321°
2026-05-05 21:24 -29.25712 -62.30342 35890 ft 413 kts 321°
2026-05-05 21:24 -29.20642 -62.33431 35882 ft 414 kts 321°
2026-05-05 21:25 -29.15552 -62.36528 35884 ft 414 kts 321°
2026-05-05 21:25 -29.10464 -62.39620 35877 ft 414 kts 321°
2026-05-05 21:26 -29.05366 -62.42715 35879 ft 415 kts 321°
2026-05-05 21:26 -29.00266 -62.45808 35885 ft 415 kts 321°
2026-05-05 21:27 -28.95161 -62.48901 35880 ft 415 kts 321°
2026-05-05 21:27 -28.90046 -62.51996 35881 ft 416 kts 321°
2026-05-05 21:28 -28.85789 -62.54569 35868 ft 416 kts 321°
2026-05-05 21:28 -28.80132 -62.58541 35885 ft 405 kts 314°
2026-05-05 21:29 -28.75588 -62.62376 35872 ft 406 kts 313°
2026-05-05 21:29 -28.71778 -62.65585 35875 ft 407 kts 314°
2026-05-05 21:30 -28.67234 -62.69377 35871 ft 408 kts 314°
2026-05-05 21:30 -28.62636 -62.73191 35871 ft 408 kts 314°
2026-05-05 21:31 -28.58037 -62.76997 35852 ft 409 kts 314°
2026-05-05 21:31 -28.53427 -62.80805 35842 ft 409 kts 314°
2026-05-05 21:32 -28.48823 -62.84605 35843 ft 409 kts 314°
2026-05-05 21:32 -28.44209 -62.88410 35842 ft 409 kts 314°
2026-05-05 21:33 -28.39599 -62.92204 35843 ft 409 kts 314°
2026-05-05 21:33 -28.35022 -62.95972 35846 ft 409 kts 314°
2026-05-05 21:34 -28.30408 -62.99764 35837 ft 409 kts 314°
2026-05-05 21:34 -28.25805 -63.03543 35842 ft 408 kts 314°
2026-05-05 21:35 -28.21212 -63.07308 35830 ft 407 kts 314°
2026-05-05 21:35 -28.16616 -63.11072 35833 ft 407 kts 314°
2026-05-05 21:36 -28.12028 -63.14826 35834 ft 406 kts 314°
2026-05-05 21:36 -28.07443 -63.18575 35833 ft 406 kts 314°
2026-05-05 21:37 -28.02887 -63.22296 35836 ft 406 kts 315°
2026-05-05 21:37 -27.98311 -63.26029 35831 ft 406 kts 315°
2026-05-05 21:38 -27.93720 -63.29770 35835 ft 407 kts 315°
2026-05-05 21:38 -27.89128 -63.33508 35834 ft 407 kts 315°
2026-05-05 21:39 -27.84517 -63.37258 35838 ft 409 kts 315°
2026-05-05 21:39 -27.79893 -63.41013 35834 ft 410 kts 315°
2026-05-05 21:40 -27.75254 -63.44777 35835 ft 411 kts 315°
2026-05-05 21:40 -27.70611 -63.48540 35840 ft 411 kts 315°
2026-05-05 21:41 -27.65990 -63.52281 35838 ft 411 kts 315°
2026-05-05 21:41 -27.61339 -63.56042 35838 ft 411 kts 315°
2026-05-05 21:42 -27.56675 -63.59808 35840 ft 411 kts 315°
2026-05-05 21:42 -27.52020 -63.63561 35843 ft 411 kts 315°
2026-05-05 21:43 -27.47361 -63.67317 35839 ft 411 kts 315°
2026-05-05 21:43 -27.42710 -63.71066 35827 ft 411 kts 315°
2026-05-05 21:44 -27.38090 -63.74783 35833 ft 410 kts 315°
2026-05-05 21:44 -27.33451 -63.78511 35835 ft 410 kts 315°
2026-05-05 21:45 -27.28795 -63.82248 35840 ft 410 kts 315°
2026-05-05 21:45 -27.24179 -63.85950 35846 ft 410 kts 315°
2026-05-05 21:46 -27.19532 -63.89673 35842 ft 411 kts 315°
2026-05-05 21:46 -27.14870 -63.93404 35836 ft 411 kts 315°
2026-05-05 21:47 -27.10215 -63.97126 35840 ft 411 kts 315°
2026-05-05 21:47 -27.05549 -64.00853 35840 ft 412 kts 315°
2026-05-05 21:48 -27.00879 -64.04579 35843 ft 412 kts 316°
2026-05-05 21:48 -26.96209 -64.08303 35838 ft 412 kts 316°
2026-05-05 21:49 -26.91554 -64.12060 35843 ft 412 kts 315°
2026-05-05 21:49 -26.86913 -64.15824 35839 ft 412 kts 315°
2026-05-05 21:50 -26.82264 -64.19585 35856 ft 412 kts 315°
2026-05-05 21:50 -26.77616 -64.23341 35873 ft 412 kts 316°
2026-05-05 21:51 -26.72991 -64.27073 35870 ft 413 kts 316°
2026-05-05 21:51 -26.68315 -64.30844 35868 ft 414 kts 316°
2026-05-05 21:52 -26.61299 -64.36492 35866 ft 415 kts 316°
2026-05-05 21:53 -26.56594 -64.40273 35859 ft 416 kts 316°
2026-05-05 21:53 -26.51900 -64.44040 35867 ft 416 kts 316°
2026-05-05 21:54 -26.47235 -64.47785 35866 ft 416 kts 316°
2026-05-05 21:54 -26.42530 -64.51554 35853 ft 416 kts 316°
2026-05-05 21:54 -26.40162 -64.53453 35569 ft 420 kts 316°
2026-05-05 21:55 -26.37790 -64.55352 35331 ft 418 kts 316°
2026-05-05 21:55 -26.35425 -64.57242 35081 ft 418 kts 316°
2026-05-05 21:55 -26.33047 -64.59143 34841 ft 420 kts 316°
2026-05-05 21:55 -26.30671 -64.61042 34238 ft 422 kts 316°
2026-05-05 21:56 -26.28333 -64.62907 33849 ft 415 kts 316°
2026-05-05 21:56 -26.25988 -64.64776 33230 ft 414 kts 317°
2026-05-05 21:56 -26.23656 -64.66635 32746 ft 409 kts 317°
2026-05-05 21:56 -26.21347 -64.68476 32234 ft 406 kts 317°
2026-05-05 21:57 -26.19059 -64.70299 31732 ft 402 kts 318°
2026-05-05 21:57 -26.16790 -64.72106 31229 ft 399 kts 318°
2026-05-05 21:57 -26.14549 -64.73892 30752 ft 395 kts 318°
2026-05-05 21:57 -26.12318 -64.75664 30246 ft 392 kts 319°
2026-05-05 21:58 -26.10111 -64.77418 29763 ft 388 kts 319°
2026-05-05 21:58 -26.07925 -64.79158 29271 ft 384 kts 319°
2026-05-05 21:58 -26.05761 -64.80881 28765 ft 381 kts 319°
2026-05-05 21:58 -26.03608 -64.82594 28266 ft 378 kts 320°
2026-05-05 21:59 -26.01476 -64.84288 27757 ft 376 kts 319°
2026-05-05 21:59 -25.99353 -64.85975 27267 ft 374 kts 320°
2026-05-05 21:59 -25.97243 -64.87650 26752 ft 373 kts 320°
2026-05-05 21:59 -25.95137 -64.89321 26263 ft 371 kts 320°
2026-05-05 22:00 -25.93037 -64.90987 25768 ft 370 kts 321°
2026-05-05 22:00 -25.90967 -64.92628 25270 ft 370 kts 321°
2026-05-05 22:00 -25.88873 -64.94287 24773 ft 369 kts 321°
2026-05-05 22:00 -25.86783 -64.95942 24265 ft 368 kts 321°
2026-05-05 22:01 -25.84695 -64.97593 23765 ft 367 kts 321°
2026-05-05 22:01 -25.82620 -64.99235 23264 ft 366 kts 321°
2026-05-05 22:01 -25.80546 -65.00874 22774 ft 365 kts 321°
2026-05-05 22:01 -25.78482 -65.02505 22283 ft 364 kts 322°
2026-05-05 22:02 -25.76423 -65.04133 21783 ft 363 kts 322°
2026-05-05 22:02 -25.74367 -65.05758 21295 ft 361 kts 322°
2026-05-05 22:02 -25.72347 -65.07353 20801 ft 360 kts 322°
2026-05-05 22:02 -25.70285 -65.08980 20310 ft 358 kts 322°
2026-05-05 22:03 -25.68236 -65.10476 19832 ft 357 kts 326°
2026-05-05 22:03 -25.66100 -65.11880 19346 ft 356 kts 328°
2026-05-05 22:03 -25.63958 -65.13244 18862 ft 355 kts 328°
2026-05-05 22:03 -25.61821 -65.14604 18371 ft 353 kts 328°
2026-05-05 22:04 -25.59698 -65.15965 17882 ft 352 kts 328°
2026-05-05 22:04 -25.57587 -65.17328 17390 ft 350 kts 328°
2026-05-05 22:04 -25.55494 -65.18686 16917 ft 348 kts 328°
2026-05-05 22:04 -25.53406 -65.20046 16425 ft 347 kts 328°
2026-05-05 22:05 -25.51327 -65.21400 15916 ft 346 kts 328°
2026-05-05 22:05 -25.49278 -65.22736 15455 ft 344 kts 328°
2026-05-05 22:05 -25.47228 -65.24072 14970 ft 338 kts 328°
2026-05-05 22:05 -25.45215 -65.25383 14492 ft 334 kts 329°
2026-05-05 22:06 -25.43221 -65.26681 14039 ft 333 kts 329°
2026-05-05 22:06 -25.41221 -65.27981 13572 ft 332 kts 329°
2026-05-05 22:06 -25.39235 -65.29273 13115 ft 331 kts 329°
2026-05-05 22:06 -25.37246 -65.30566 12658 ft 330 kts 329°
2026-05-05 22:07 -25.35269 -65.31850 12202 ft 329 kts 329°
2026-05-05 22:07 -25.33295 -65.33130 11741 ft 328 kts 329°
2026-05-05 22:07 -25.31336 -65.34400 11272 ft 326 kts 330°
2026-05-05 22:07 -25.29383 -65.35669 10872 ft 323 kts 330°
2026-05-05 22:08 -25.27460 -65.36919 10560 ft 318 kts 330°
2026-05-05 22:08 -25.25590 -65.38132 10251 ft 312 kts 330°
2026-05-05 22:08 -25.23730 -65.39338 9945 ft 307 kts 330°
2026-05-05 22:08 -25.21904 -65.40522 9651 ft 300 kts 330°
2026-05-05 22:09 -25.20144 -65.41663 9356 ft 287 kts 330°
2026-05-05 22:09 -25.18452 -65.42758 9083 ft 277 kts 330°
2026-05-05 22:09 -25.16792 -65.43832 8843 ft 277 kts 330°
2026-05-05 22:09 -25.15149 -65.44902 8685 ft 267 kts 330°
2026-05-05 22:10 -25.13593 -65.45917 8521 ft 255 kts 330°
2026-05-05 22:10 -25.12068 -65.46909 8254 ft 254 kts 330°
2026-05-05 22:10 -25.10558 -65.47893 8015 ft 251 kts 330°
2026-05-05 22:10 -25.09055 -65.48873 7743 ft 250 kts 330°
2026-05-05 22:11 -25.07582 -65.49833 7496 ft 247 kts 330°
2026-05-05 22:11 -25.06150 -65.50766 7411 ft 231 kts 331°
2026-05-05 22:11 -25.04823 -65.51630 7318 ft 212 kts 331°
2026-05-05 22:11 -25.03581 -65.52377 7129 ft 197 kts 343°
2026-05-05 22:12 -25.02272 -65.52347 6802 ft 192 kts 22°
2026-05-05 22:12 -25.00985 -65.51879 6762 ft 199 kts 10°
2026-05-05 22:12 -24.99634 -65.51675 6562 ft 194 kts
2026-05-05 22:12 -24.98349 -65.51428 6333 ft 179 kts 12°
2026-05-05 22:13 -24.97167 -65.51172 6094 ft 164 kts 12°
2026-05-05 22:13 -24.96098 -65.50935 5849 ft 151 kts 12°
2026-05-05 22:13 -24.95071 -65.50708 5666 ft 153 kts 12°
2026-05-05 22:13 -24.94028 -65.50479 5477 ft 154 kts 12°
2026-05-05 22:14 -24.92977 -65.50247 5265 ft 154 kts 12°
2026-05-05 22:14 -24.91930 -65.50015 5052 ft 153 kts 12°
2026-05-05 22:14 -24.90886 -65.49775 4850 ft 153 kts 13°
2026-05-05 22:14 -24.89861 -65.49531 4602 ft 152 kts 12°
2026-05-05 22:15 -24.88829 -65.49314 4354 ft 151 kts 11°
2026-05-05 22:15 -24.87799 -65.49089 4139 ft 150 kts 11°
2026-05-05 22:15 -24.86779 -65.48876 4015 ft 144 kts 10°
2026-05-05 22:15 -24.86159 -65.48744 4017 ft 38 kts 11°
2026-05-05 22:16 -24.85906 -65.48691 4018 ft 35 kts 11°
2026-05-05 22:16 -24.85676 -65.48642 4017 ft 32 kts 11°
2026-05-05 22:16 -24.85472 -65.48598 4017 ft 29 kts 11°
2026-05-05 22:16 -24.85299 -65.48562 4016 ft 20 kts 11°
2026-05-05 22:17 -24.85162 -65.48532 4016 ft 20 kts 11°
2026-05-05 22:17 -24.85030 -65.48504 4016 ft 19 kts
2026-05-05 22:17 -24.84903 -65.48477 4017 ft 17 kts 11°
2026-05-05 22:17 -24.84799 -65.48455 4017 ft 15 kts 12°
2026-05-05 22:18 -24.84741 -65.48443 4017 ft 12 kts 12°
2026-05-05 22:18 -24.84673 -65.48391 3999 ft 12 kts 43°
2026-05-05 22:18 -24.84614 -65.48330 4016 ft 11 kts 50°
2026-05-05 22:18 -24.84578 -65.48226 4016 ft 11 kts 72°
2026-05-05 22:19 -24.84555 -65.48149 4016 ft 10 kts 71°
2026-05-05 22:19 -24.84540 -65.48098 4016 ft 10 kts 72°
2026-05-05 22:19 -24.84519 -65.48029 4016 ft 7 kts 72°
2026-05-05 22:19 -24.84505 -65.47979 4016 ft 5 kts 74°
2026-05-05 22:20 -24.84488 -65.47959 4016 ft 3 kts 24°
2026-05-05 22:20 -24.84472 -65.47952 4016 ft 3 kts 21°
2026-05-05 22:20 -24.84466 -65.47950 4016 ft 0 kts 21°